Location: Ripley
(48.3812°N, 115.4473°W)
Time: 12:53:04
(UTC+00:00)

RS-15 - Pass Details

Date: 03 July 2022
Orbit: 1881 x 2163 km, 64.8° (Epoch: 13 August)

Event Time Altitude Azimuth Distance (km) Brightness Sun altitude
Rises 07:02:39 0° 321° (NW) 5,699 11.6 -18.0°
Reaches altitude 10° 07:06:08 10° 320° (NW) 4,693 10.9 -18.1°
Maximum altitude 07:18:26 75° 239° (WSW) 2,198 8.2 -18.4°
Enters shadow 07:27:10 22° 159° (SSE) 3,660 8.9 -18.5°
